MSR731 HECA-EDDB

Flight info

Callsign MSR731
Flight time 3h 38m
Altitude 38000
Route CVO L617 NOZ L551 ANTAR UN133 KOROS DCT PEREN UL863 EVIVI L863 OKANA DCT TONDO DCT BEGLA DCT NAVTI DCT BODAL DCT ODLIV DCT LEGAZ DCT BEFRE T204 NUKRO NUKRO1R
Aircraft B77W/H-SDE1E2E3FGHIJ2J3J4J5M1RWXY/LB1D1

Departure

Time 2026-05-05 09:45
Airport Cairo International Airport (HECA)

Arrival

Time 2026-05-05 13:24
Airport Berlin Brandenburg Airport (EDDB)
Time Latitude Longitude Altitude Speed Heading
2026-05-05 09:00 30.10853 31.39841 392 ft 0 kts 75°
2026-05-05 09:33 30.10849 31.39824 392 ft 2 kts 77°
2026-05-05 09:33 30.10846 31.39806 392 ft 2 kts 75°
2026-05-05 09:34 30.10844 31.39786 392 ft 2 kts 103°
2026-05-05 09:34 30.10851 31.39767 392 ft 2 kts 133°
2026-05-05 09:34 30.10866 31.39755 392 ft 2 kts 161°
2026-05-05 09:34 30.10872 31.39753 392 ft 0 kts 165°
2026-05-05 09:37 30.10862 31.39756 392 ft 4 kts 166°
2026-05-05 09:37 30.10810 31.39770 392 ft 9 kts 167°
2026-05-05 09:38 30.10727 31.39796 392 ft 13 kts 162°
2026-05-05 09:38 30.10642 31.39825 392 ft 12 kts 161°
2026-05-05 09:38 30.10629 31.39900 392 ft 10 kts 54°
2026-05-05 09:38 30.10675 31.39974 392 ft 10 kts 54°
2026-05-05 09:39 30.10724 31.40037 392 ft 9 kts 45°
2026-05-05 09:39 30.10771 31.40093 392 ft 8 kts 46°
2026-05-05 09:39 30.10825 31.40124 392 ft 8 kts 10°
2026-05-05 09:39 30.10877 31.40153 392 ft 8 kts 41°
2026-05-05 09:40 30.10931 31.40222 392 ft 12 kts 50°
2026-05-05 09:40 30.10959 31.40312 392 ft 11 kts 97°
2026-05-05 09:40 30.10938 31.40408 392 ft 11 kts 107°
2026-05-05 09:40 30.10867 31.40460 392 ft 15 kts 210°
2026-05-05 09:41 30.10811 31.40390 392 ft 12 kts 227°
2026-05-05 09:41 30.10736 31.40292 392 ft 19 kts 230°
2026-05-05 09:41 30.10635 31.40156 392 ft 23 kts 229°
2026-05-05 09:41 30.10532 31.40017 392 ft 21 kts 229°
2026-05-05 09:42 30.10435 31.39890 392 ft 21 kts 228°
2026-05-05 09:42 30.10333 31.39754 392 ft 21 kts 229°
2026-05-05 09:42 30.10238 31.39628 392 ft 19 kts 229°
2026-05-05 09:42 30.10161 31.39572 392 ft 12 kts 175°
2026-05-05 09:43 30.10087 31.39628 392 ft 12 kts 137°
2026-05-05 09:43 30.10072 31.39645 392 ft 0 kts 136°
2026-05-05 09:43 30.10065 31.39652 392 ft 5 kts 136°
2026-05-05 09:44 30.10016 31.39716 392 ft 14 kts 119°
2026-05-05 09:44 30.10000 31.39824 392 ft 8 kts 90°
2026-05-05 09:44 30.10025 31.39892 392 ft 9 kts 51°
2026-05-05 09:44 30.10068 31.39952 392 ft 8 kts 49°
2026-05-05 09:45 30.10171 31.40090 392 ft 54 kts 49°
2026-05-05 09:45 30.10683 31.40769 393 ft 150 kts 49°
2026-05-05 09:45 30.11541 31.41875 882 ft 187 kts 44°
2026-05-05 09:45 30.12419 31.42919 2048 ft 180 kts 43°
2026-05-05 09:46 30.13199 31.43911 2883 ft 169 kts 34°
2026-05-05 09:46 30.14328 31.44467 3109 ft 188 kts 360°
2026-05-05 09:46 30.15630 31.44010 3386 ft 209 kts 320°
2026-05-05 09:46 30.16720 31.42783 3883 ft 228 kts 314°
2026-05-05 09:47 30.17883 31.41391 4451 ft 246 kts 314°
2026-05-05 09:47 30.19104 31.39924 5162 ft 258 kts 314°
2026-05-05 09:47 30.20335 31.38445 6125 ft 259 kts 314°
2026-05-05 09:47 30.21597 31.36929 7042 ft 261 kts 314°
2026-05-05 09:48 30.22908 31.35353 8019 ft 262 kts 314°
2026-05-05 09:48 30.24188 31.33815 8943 ft 263 kts 314°
2026-05-05 09:48 30.25438 31.32310 9803 ft 265 kts 314°
2026-05-05 09:48 30.26800 31.30671 10593 ft 272 kts 314°
2026-05-05 09:49 30.28145 31.29052 11074 ft 290 kts 313°
2026-05-05 09:49 30.29578 31.27325 11622 ft 306 kts 313°
2026-05-05 09:49 30.31088 31.25504 12180 ft 322 kts 313°
2026-05-05 09:49 30.32688 31.23574 12752 ft 338 kts 312°
2026-05-05 09:50 30.34337 31.21583 13528 ft 348 kts 312°
2026-05-05 09:50 30.36014 31.19559 14479 ft 354 kts 312°
2026-05-05 09:50 30.37725 31.17492 15520 ft 357 kts 311°
2026-05-05 09:50 30.39483 31.15367 16580 ft 360 kts 311°
2026-05-05 09:51 30.41245 31.13237 17515 ft 366 kts 311°
2026-05-05 09:51 30.43004 31.11108 18435 ft 371 kts 311°
2026-05-05 09:51 30.44795 31.08940 19448 ft 373 kts 311°
2026-05-05 09:51 30.46590 31.06765 20406 ft 377 kts 311°
2026-05-05 09:52 30.48410 31.04560 21367 ft 379 kts 310°
2026-05-05 09:52 30.50219 31.02366 22290 ft 382 kts 310°
2026-05-05 09:52 30.52075 31.00114 23159 ft 386 kts 310°
2026-05-05 09:52 30.53933 30.97858 24015 ft 389 kts 310°
2026-05-05 09:53 30.55801 30.95588 24807 ft 393 kts 310°
2026-05-05 09:53 30.57703 30.93275 25446 ft 401 kts 310°
2026-05-05 09:53 30.59657 30.90896 26005 ft 409 kts 310°
2026-05-05 09:53 30.61667 30.88450 26746 ft 414 kts 310°
2026-05-05 09:54 30.63694 30.85981 27528 ft 417 kts 310°
2026-05-05 09:54 30.65703 30.83534 28325 ft 419 kts 309°
2026-05-05 09:54 30.67738 30.81052 29056 ft 422 kts 309°
2026-05-05 09:54 30.69744 30.78605 29764 ft 425 kts 309°
2026-05-05 09:55 30.71789 30.76109 30582 ft 424 kts 309°
2026-05-05 09:55 30.73796 30.73659 31441 ft 421 kts 309°
2026-05-05 09:55 30.75821 30.71185 32193 ft 420 kts 309°
2026-05-05 09:55 30.77829 30.68729 32822 ft 420 kts 309°
2026-05-05 09:56 30.79844 30.66264 33423 ft 420 kts 308°
2026-05-05 09:56 30.81854 30.63802 33964 ft 421 kts 308°
2026-05-05 09:56 30.83872 30.61329 34066 ft 423 kts 309°
2026-05-05 09:56 30.85872 30.58878 34070 ft 419 kts 309°
2026-05-05 09:57 30.89883 30.53958 34070 ft 416 kts 309°
2026-05-05 09:57 30.93862 30.49067 34075 ft 417 kts 309°
2026-05-05 09:58 30.97854 30.44156 34064 ft 417 kts 309°
2026-05-05 09:58 31.01840 30.39244 34065 ft 417 kts 309°
2026-05-05 09:59 31.05844 30.34303 34082 ft 417 kts 308°
2026-05-05 09:59 31.09185 30.28846 34101 ft 411 kts 295°
2026-05-05 10:00 31.11250 30.22643 34106 ft 408 kts 287°
2026-05-05 10:00 31.12970 30.16350 34115 ft 408 kts 287°
2026-05-05 10:01 31.14698 30.10009 34105 ft 408 kts 287°
2026-05-05 10:01 31.16461 30.03627 34096 ft 408 kts 290°
2026-05-05 10:02 31.19142 29.97733 34105 ft 411 kts 303°
2026-05-05 10:02 31.23113 29.92793 34104 ft 416 kts 316°
2026-05-05 10:03 31.28188 29.89086 34107 ft 424 kts 326°
2026-05-05 10:03 31.33759 29.85656 34102 ft 427 kts 326°
2026-05-05 10:04 31.39494 29.82094 34098 ft 424 kts 326°
2026-05-05 10:04 31.45334 29.78446 34096 ft 424 kts 326°
2026-05-05 10:05 31.51067 29.74853 34088 ft 424 kts 326°
2026-05-05 10:05 31.56814 29.71242 34086 ft 422 kts 326°
2026-05-05 10:06 31.62582 29.67611 34095 ft 423 kts 326°
2026-05-05 10:06 31.68381 29.63956 34085 ft 422 kts 326°
2026-05-05 10:07 31.74200 29.60281 34094 ft 423 kts 326°
2026-05-05 10:07 31.79915 29.56668 34081 ft 421 kts 326°
2026-05-05 10:08 31.85711 29.52998 34080 ft 420 kts 326°
2026-05-05 10:08 31.91489 29.49333 34088 ft 422 kts 326°
2026-05-05 10:09 31.97251 29.45675 34081 ft 420 kts 326°
2026-05-05 10:09 32.02981 29.42030 34085 ft 420 kts 326°
2026-05-05 10:10 32.08717 29.38378 34080 ft 418 kts 327°
2026-05-05 10:10 32.14393 29.34756 34095 ft 420 kts 326°
2026-05-05 10:11 32.20144 29.31084 34101 ft 418 kts 326°
2026-05-05 10:11 32.25867 29.27420 34108 ft 420 kts 326°
2026-05-05 10:12 32.31598 29.23745 34101 ft 418 kts 326°
2026-05-05 10:12 32.37339 29.20058 34097 ft 421 kts 326°
2026-05-05 10:13 32.43106 29.16350 34102 ft 419 kts 326°
2026-05-05 10:13 32.48852 29.12649 34112 ft 419 kts 326°
2026-05-05 10:14 32.54567 29.08963 34099 ft 420 kts 326°
2026-05-05 10:14 32.60292 29.05265 34103 ft 420 kts 326°
2026-05-05 10:15 32.66021 29.01559 34093 ft 418 kts 326°
2026-05-05 10:15 32.71692 28.97886 34091 ft 417 kts 326°
2026-05-05 10:16 32.77400 28.94182 34088 ft 418 kts 326°
2026-05-05 10:16 32.83106 28.90475 34083 ft 418 kts 326°
2026-05-05 10:17 32.88842 28.86743 34079 ft 417 kts 326°
2026-05-05 10:17 32.94521 28.83042 34074 ft 417 kts 326°
2026-05-05 10:18 33.00188 28.79344 34071 ft 417 kts 326°
2026-05-05 10:18 33.05820 28.75663 34077 ft 417 kts 327°
2026-05-05 10:19 33.11423 28.71995 34087 ft 419 kts 326°
2026-05-05 10:19 33.16929 28.68386 34091 ft 418 kts 327°
2026-05-05 10:20 33.22519 28.64717 34093 ft 419 kts 327°
2026-05-05 10:20 33.28155 28.61011 34089 ft 419 kts 327°
2026-05-05 10:21 33.33759 28.57322 34083 ft 419 kts 327°
2026-05-05 10:21 33.38879 28.53946 34080 ft 419 kts 327°
2026-05-05 10:22 33.44154 28.50463 34067 ft 420 kts 327°
2026-05-05 10:22 33.49761 28.46756 34070 ft 421 kts 327°
2026-05-05 10:23 33.55407 28.43018 34068 ft 421 kts 327°
2026-05-05 10:23 33.60113 28.39896 34066 ft 422 kts 327°
2026-05-05 10:24 33.66638 28.35564 34069 ft 422 kts 327°
2026-05-05 10:24 33.71901 28.32063 34082 ft 423 kts 327°
2026-05-05 10:25 33.77028 28.28648 34085 ft 423 kts 327°
2026-05-05 10:25 33.82185 28.25200 34083 ft 423 kts 327°
2026-05-05 10:26 33.87325 28.21730 34075 ft 424 kts 327°
2026-05-05 10:26 33.92483 28.18245 34068 ft 422 kts 327°
2026-05-05 10:27 33.97601 28.14781 34065 ft 425 kts 327°
2026-05-05 10:27 34.02757 28.11288 34070 ft 425 kts 327°
2026-05-05 10:28 34.07895 28.07802 34064 ft 426 kts 327°
2026-05-05 10:28 34.13047 28.04302 34078 ft 424 kts 327°
2026-05-05 10:29 34.18197 28.00799 34071 ft 426 kts 327°
2026-05-05 10:29 34.23359 27.97282 34072 ft 426 kts 327°
2026-05-05 10:30 34.28556 27.93737 34073 ft 426 kts 327°
2026-05-05 10:30 34.33714 27.90213 34071 ft 427 kts 327°
2026-05-05 10:31 34.38863 27.86690 34068 ft 426 kts 327°
2026-05-05 10:31 34.44033 27.83149 34069 ft 427 kts 327°
2026-05-05 10:32 34.49181 27.79616 34065 ft 427 kts 327°
2026-05-05 10:32 34.54366 27.76054 34065 ft 427 kts 327°
2026-05-05 10:33 34.59522 27.72492 34061 ft 428 kts 327°
2026-05-05 10:33 34.64696 27.68913 34058 ft 429 kts 327°
2026-05-05 10:34 34.69899 27.65309 34058 ft 429 kts 328°
2026-05-05 10:34 34.75086 27.61711 34055 ft 431 kts 327°
2026-05-05 10:35 34.80281 27.58102 34054 ft 429 kts 328°
2026-05-05 10:35 34.85471 27.54492 34050 ft 431 kts 328°
2026-05-05 10:36 34.90659 27.50878 34048 ft 431 kts 328°
2026-05-05 10:36 34.95942 27.47191 34046 ft 431 kts 328°
2026-05-05 10:37 35.01289 27.43455 34045 ft 432 kts 328°
2026-05-05 10:37 35.06741 27.39640 34046 ft 429 kts 328°
2026-05-05 10:38 35.11968 27.35976 34052 ft 430 kts 328°
2026-05-05 10:38 35.17516 27.32081 34055 ft 432 kts 327°
2026-05-05 10:39 35.23368 27.27967 34056 ft 430 kts 328°
2026-05-05 10:39 35.28830 27.24120 34053 ft 431 kts 328°
2026-05-05 10:40 35.34096 27.20406 34056 ft 429 kts 328°
2026-05-05 10:40 35.39328 27.16709 34055 ft 429 kts 328°
2026-05-05 10:41 35.44711 27.13249 34055 ft 431 kts 333°
2026-05-05 10:41 35.50256 27.10141 34051 ft 433 kts 333°
2026-05-05 10:42 35.58527 27.05494 34051 ft 432 kts 333°
2026-05-05 10:43 35.64151 27.02324 34053 ft 432 kts 333°
2026-05-05 10:43 35.70137 26.98943 34054 ft 430 kts 333°
2026-05-05 10:44 35.76145 26.95544 34059 ft 433 kts 333°
2026-05-05 10:44 35.82200 26.92112 34053 ft 432 kts 333°
2026-05-05 10:45 35.88203 26.88697 34054 ft 431 kts 333°
2026-05-05 10:45 35.93732 26.85532 34054 ft 432 kts 333°
2026-05-05 10:46 35.99445 26.82258 34050 ft 433 kts 334°
2026-05-05 10:46 36.05079 26.79024 34051 ft 432 kts 334°
2026-05-05 10:47 36.10641 26.75827 34064 ft 433 kts 333°
2026-05-05 10:47 36.16143 26.72660 34065 ft 433 kts 333°
2026-05-05 10:48 36.21694 26.69459 34060 ft 432 kts 334°
2026-05-05 10:48 36.27168 26.66298 34062 ft 431 kts 334°
2026-05-05 10:49 36.32604 26.63153 34048 ft 433 kts 333°
2026-05-05 10:49 36.38101 26.59967 34045 ft 431 kts 334°
2026-05-05 10:50 36.43523 26.56818 34051 ft 433 kts 334°
2026-05-05 10:50 36.48982 26.53645 34050 ft 431 kts 334°
2026-05-05 10:51 36.54501 26.50430 34048 ft 432 kts 334°
2026-05-05 10:51 36.59919 26.47265 34057 ft 431 kts 334°
2026-05-05 10:52 36.65459 26.44023 34047 ft 433 kts 333°
2026-05-05 10:52 36.71124 26.40703 34041 ft 432 kts 334°
2026-05-05 10:53 36.76877 26.37326 34054 ft 432 kts 334°
2026-05-05 10:53 36.82658 26.33926 34061 ft 431 kts 333°
2026-05-05 10:54 36.88073 26.30738 34059 ft 429 kts 333°
2026-05-05 10:54 36.93523 26.27522 34059 ft 432 kts 333°
2026-05-05 10:55 36.98938 26.24320 34063 ft 430 kts 333°
2026-05-05 10:55 37.04346 26.21024 34060 ft 431 kts 333°
2026-05-05 10:56 37.09715 26.17742 34061 ft 430 kts 333°
2026-05-05 10:56 37.15432 26.14245 34072 ft 429 kts 333°
2026-05-05 10:57 37.21309 26.10645 34082 ft 430 kts 333°
2026-05-05 10:57 37.26984 26.07163 34074 ft 429 kts 333°
2026-05-05 10:58 37.32851 26.03559 34453 ft 438 kts 333°
2026-05-05 10:58 37.35837 26.01722 35303 ft 431 kts 333°
2026-05-05 10:58 37.38791 25.99903 35913 ft 429 kts 333°
2026-05-05 10:58 37.41667 25.98130 36060 ft 436 kts 333°
2026-05-05 10:59 37.44488 25.96390 36069 ft 445 kts 333°
2026-05-05 10:59 37.50542 25.92651 36073 ft 447 kts 333°
2026-05-05 11:00 37.56580 25.88916 36075 ft 447 kts 333°
2026-05-05 11:00 37.62776 25.85074 36063 ft 446 kts 333°
2026-05-05 11:01 37.69062 25.81167 36057 ft 447 kts 333°
2026-05-05 11:01 37.75528 25.77141 36060 ft 446 kts 333°
2026-05-05 11:02 37.81462 25.73439 36058 ft 447 kts 333°
2026-05-05 11:02 37.87370 25.69747 36059 ft 445 kts 333°
2026-05-05 11:03 37.93326 25.66018 36057 ft 446 kts 333°
2026-05-05 11:03 37.99358 25.62234 36062 ft 446 kts 333°
2026-05-05 11:04 38.05267 25.58521 36062 ft 446 kts 333°
2026-05-05 11:04 38.11178 25.54800 36068 ft 446 kts 333°
2026-05-05 11:05 38.17245 25.50974 36075 ft 445 kts 333°
2026-05-05 11:05 38.23182 25.47223 36072 ft 445 kts 333°
2026-05-05 11:06 38.28972 25.43558 36071 ft 446 kts 333°
2026-05-05 11:06 38.34815 25.39852 36073 ft 446 kts 333°
2026-05-05 11:07 38.40620 25.36164 36072 ft 446 kts 333°
2026-05-05 11:07 38.46404 25.32483 36073 ft 446 kts 332°
2026-05-05 11:08 38.52290 25.28730 36072 ft 446 kts 333°
2026-05-05 11:08 38.58129 25.25001 36073 ft 445 kts 333°
2026-05-05 11:09 38.63909 25.21302 36072 ft 446 kts 332°
2026-05-05 11:09 38.69665 25.17612 36070 ft 446 kts 333°
2026-05-05 11:10 38.75391 25.13935 36069 ft 447 kts 333°
2026-05-05 11:10 38.81130 25.10243 36070 ft 445 kts 333°
2026-05-05 11:11 38.86875 25.06539 36071 ft 445 kts 332°
2026-05-05 11:11 38.92630 25.02823 36072 ft 446 kts 332°
2026-05-05 11:12 38.98425 24.99074 36069 ft 446 kts 333°
2026-05-05 11:12 39.04231 24.95311 36069 ft 445 kts 333°
2026-05-05 11:13 39.09989 24.91572 36065 ft 445 kts 333°
2026-05-05 11:13 39.15876 24.87904 36071 ft 446 kts 334°
2026-05-05 11:14 39.21772 24.84262 36057 ft 446 kts 334°
2026-05-05 11:14 39.27668 24.80607 36058 ft 445 kts 334°
2026-05-05 11:15 39.33499 24.76983 36057 ft 446 kts 334°
2026-05-05 11:15 39.39315 24.73359 36056 ft 444 kts 333°
2026-05-05 11:16 39.45052 24.69776 36056 ft 446 kts 334°
2026-05-05 11:16 39.50950 24.66087 36054 ft 445 kts 334°
2026-05-05 11:17 39.56821 24.62406 36054 ft 446 kts 334°
2026-05-05 11:17 39.62740 24.58688 36050 ft 444 kts 334°
2026-05-05 11:18 39.68480 24.55077 36053 ft 445 kts 334°
2026-05-05 11:18 39.74224 24.51456 36051 ft 445 kts 334°
2026-05-05 11:19 39.79989 24.47815 36049 ft 445 kts 334°
2026-05-05 11:19 39.85643 24.44237 36048 ft 445 kts 334°
2026-05-05 11:20 39.91306 24.40647 36041 ft 444 kts 334°
2026-05-05 11:20 39.96949 24.37063 36037 ft 446 kts 334°
2026-05-05 11:21 40.02635 24.33445 36038 ft 446 kts 333°
2026-05-05 11:21 40.08396 24.29772 36038 ft 447 kts 333°
2026-05-05 11:22 40.14146 24.26100 36053 ft 446 kts 333°
2026-05-05 11:22 40.19975 24.22369 36052 ft 447 kts 333°
2026-05-05 11:23 40.25752 24.18666 36054 ft 447 kts 333°
2026-05-05 11:23 40.31520 24.14961 36050 ft 446 kts 333°
2026-05-05 11:24 40.37165 24.11328 36043 ft 446 kts 333°
2026-05-05 11:24 40.42841 24.07668 36031 ft 446 kts 333°
2026-05-05 11:25 40.48435 24.04054 36033 ft 446 kts 333°
2026-05-05 11:25 40.54019 24.00440 36035 ft 446 kts 333°
2026-05-05 11:26 40.59590 23.96828 36035 ft 447 kts 333°
2026-05-05 11:26 40.65178 23.93302 36037 ft 446 kts 334°
2026-05-05 11:27 40.70765 23.89801 36032 ft 446 kts 334°
2026-05-05 11:27 40.76386 23.86267 36024 ft 448 kts 334°
2026-05-05 11:28 40.81996 23.82731 36027 ft 447 kts 334°
2026-05-05 11:28 40.87610 23.79185 36022 ft 447 kts 334°
2026-05-05 11:29 40.93198 23.75648 36023 ft 446 kts 334°
2026-05-05 11:29 40.98832 23.72075 36030 ft 449 kts 334°
2026-05-05 11:30 41.04417 23.68526 36037 ft 448 kts 334°
2026-05-05 11:30 41.10061 23.64932 36052 ft 449 kts 334°
2026-05-05 11:31 41.15671 23.61353 36077 ft 448 kts 334°
2026-05-05 11:31 41.21243 23.57792 36091 ft 447 kts 334°
2026-05-05 11:32 41.26845 23.54202 36094 ft 448 kts 334°
2026-05-05 11:32 41.32447 23.50601 36096 ft 448 kts 334°
2026-05-05 11:33 41.38078 23.46974 36089 ft 448 kts 334°
2026-05-05 11:33 41.43656 23.43363 36077 ft 450 kts 334°
2026-05-05 11:34 41.49257 23.39713 36069 ft 448 kts 334°
2026-05-05 11:34 41.54863 23.36053 36073 ft 449 kts 334°
2026-05-05 11:35 41.60476 23.32381 36087 ft 449 kts 333°
2026-05-05 11:35 41.66083 23.28708 36097 ft 451 kts 333°
2026-05-05 11:36 41.71714 23.25011 36096 ft 450 kts 333°
2026-05-05 11:36 41.77311 23.21329 36103 ft 451 kts 333°
2026-05-05 11:37 41.82922 23.17631 36104 ft 451 kts 333°
2026-05-05 11:37 41.88546 23.13918 36108 ft 450 kts 333°
2026-05-05 11:38 41.94156 23.10206 36110 ft 450 kts 333°
2026-05-05 11:38 41.99765 23.06487 36101 ft 451 kts 333°
2026-05-05 11:39 42.05371 23.02763 36098 ft 451 kts 333°
2026-05-05 11:39 42.11014 22.99007 36093 ft 451 kts 333°
2026-05-05 11:40 42.16641 22.95255 36098 ft 452 kts 333°
2026-05-05 11:40 42.22261 22.91499 36098 ft 452 kts 333°
2026-05-05 11:41 42.27856 22.87753 36093 ft 452 kts 333°
2026-05-05 11:41 42.33499 22.83967 36092 ft 452 kts 333°
2026-05-05 11:42 42.39133 22.80179 36092 ft 453 kts 333°
2026-05-05 11:42 42.44776 22.76379 36093 ft 453 kts 333°
2026-05-05 11:43 42.50419 22.72570 36088 ft 453 kts 333°
2026-05-05 11:43 42.56132 22.68706 36090 ft 454 kts 333°
2026-05-05 11:44 42.61766 22.64888 36094 ft 453 kts 333°
2026-05-05 11:44 42.67396 22.61065 36098 ft 454 kts 333°
2026-05-05 11:45 42.73139 22.57156 36100 ft 454 kts 333°
2026-05-05 11:45 42.78773 22.53314 36098 ft 455 kts 333°
2026-05-05 11:46 42.84398 22.49415 36092 ft 455 kts 330°
2026-05-05 11:46 42.89713 22.44668 36095 ft 456 kts 326°
2026-05-05 11:47 42.95148 22.39664 36090 ft 456 kts 326°
2026-05-05 11:47 43.00486 22.34745 36086 ft 455 kts 326°
2026-05-05 11:48 43.08376 22.27455 36075 ft 457 kts 326°
2026-05-05 11:48 43.13692 22.22532 36077 ft 456 kts 326°
2026-05-05 11:49 43.18962 22.17640 36071 ft 453 kts 326°
2026-05-05 11:49 43.24084 22.12878 36067 ft 442 kts 326°
2026-05-05 11:50 43.29188 22.08122 36064 ft 447 kts 326°
2026-05-05 11:50 43.34319 22.03331 36065 ft 447 kts 326°
2026-05-05 11:51 43.39466 21.98515 36071 ft 447 kts 325°
2026-05-05 11:51 43.44582 21.93718 36071 ft 447 kts 326°
2026-05-05 11:52 43.49710 21.88900 36058 ft 448 kts 326°
2026-05-05 11:52 43.54874 21.84038 36055 ft 448 kts 326°
2026-05-05 11:53 43.60049 21.79155 36055 ft 448 kts 325°
2026-05-05 11:53 43.65200 21.74284 36057 ft 449 kts 325°
2026-05-05 11:54 43.70363 21.69393 36058 ft 449 kts 325°
2026-05-05 11:54 43.75523 21.64492 36058 ft 450 kts 325°
2026-05-05 11:55 43.80711 21.59555 36048 ft 450 kts 325°
2026-05-05 11:55 43.85878 21.54628 36048 ft 451 kts 325°
2026-05-05 11:56 43.91072 21.49664 36033 ft 452 kts 325°
2026-05-05 11:56 43.96251 21.44704 36034 ft 452 kts 325°
2026-05-05 11:57 44.01463 21.39701 36026 ft 454 kts 325°
2026-05-05 11:57 44.06627 21.34734 36021 ft 454 kts 324°
2026-05-05 11:58 44.11838 21.29710 36024 ft 454 kts 324°
2026-05-05 11:58 44.17054 21.24671 36022 ft 453 kts 324°
2026-05-05 11:59 44.22259 21.19631 36022 ft 455 kts 324°
2026-05-05 11:59 44.27532 21.14514 36018 ft 456 kts 324°
2026-05-05 12:00 44.32785 21.09405 36015 ft 456 kts 324°
2026-05-05 12:00 44.37978 21.04343 36006 ft 457 kts 324°
2026-05-05 12:01 44.43205 20.99237 36005 ft 458 kts 324°
2026-05-05 12:01 44.48421 20.94131 36002 ft 458 kts 324°
2026-05-05 12:02 44.53624 20.89026 35992 ft 457 kts 324°
2026-05-05 12:02 44.58831 20.83905 35998 ft 459 kts 324°
2026-05-05 12:03 44.64053 20.78759 36003 ft 459 kts 324°
2026-05-05 12:03 44.69305 20.73570 36006 ft 458 kts 324°
2026-05-05 12:04 44.74523 20.68404 36004 ft 460 kts 324°
2026-05-05 12:04 44.79738 20.63230 36005 ft 459 kts 324°
2026-05-05 12:05 44.84957 20.58039 36006 ft 461 kts 324°
2026-05-05 12:05 44.90202 20.52811 36004 ft 461 kts 324°
2026-05-05 12:06 44.95461 20.47557 36003 ft 461 kts 324°
2026-05-05 12:06 45.00673 20.42337 36001 ft 462 kts 324°
2026-05-05 12:07 45.05936 20.37056 35999 ft 462 kts 324°
2026-05-05 12:07 45.11156 20.31805 36000 ft 463 kts 323°
2026-05-05 12:08 45.16410 20.26508 35994 ft 461 kts 323°
2026-05-05 12:08 45.21639 20.21223 35997 ft 463 kts 323°
2026-05-05 12:09 45.26922 20.15872 35989 ft 465 kts 323°
2026-05-05 12:09 45.32169 20.10543 35987 ft 465 kts 323°
2026-05-05 12:10 45.37420 20.05201 35986 ft 465 kts 323°
2026-05-05 12:10 45.42698 19.99816 35977 ft 466 kts 323°
2026-05-05 12:11 45.47942 19.94454 35966 ft 465 kts 323°
2026-05-05 12:11 45.53197 19.89069 35962 ft 465 kts 323°
2026-05-05 12:12 45.58431 19.83693 35960 ft 465 kts 323°
2026-05-05 12:12 45.63691 19.78276 35958 ft 465 kts 323°
2026-05-05 12:13 45.68921 19.72879 35959 ft 465 kts 323°
2026-05-05 12:13 45.74186 19.67432 35958 ft 467 kts 323°
2026-05-05 12:14 45.79470 19.61953 35961 ft 467 kts 323°
2026-05-05 12:14 45.84733 19.56482 35963 ft 467 kts 323°
2026-05-05 12:15 45.89979 19.51015 35964 ft 467 kts 323°
2026-05-05 12:15 45.95228 19.45533 35963 ft 467 kts 323°
2026-05-05 12:16 46.00489 19.40024 35964 ft 467 kts 323°
2026-05-05 12:16 46.05669 19.34421 35966 ft 467 kts 319°
2026-05-05 12:17 46.10726 19.28357 35965 ft 468 kts 318°
2026-05-05 12:17 46.15732 19.22321 35963 ft 469 kts 318°
2026-05-05 12:18 46.20752 19.16252 35962 ft 469 kts 318°
2026-05-05 12:18 46.25742 19.10205 35959 ft 469 kts 318°
2026-05-05 12:19 46.30714 19.04164 35956 ft 469 kts 318°
2026-05-05 12:19 46.36008 18.97716 35951 ft 469 kts 318°
2026-05-05 12:20 46.41313 18.91237 35951 ft 470 kts 318°
2026-05-05 12:20 46.46678 18.84667 35951 ft 471 kts 318°
2026-05-05 12:21 46.51748 18.78442 35951 ft 472 kts 318°
2026-05-05 12:21 46.56770 18.72261 35952 ft 471 kts 318°
2026-05-05 12:22 46.61763 18.66100 35954 ft 471 kts 318°
2026-05-05 12:22 46.66728 18.59958 35957 ft 471 kts 318°
2026-05-05 12:23 46.71718 18.53770 35956 ft 472 kts 318°
2026-05-05 12:23 46.76707 18.47567 35953 ft 472 kts 318°
2026-05-05 12:24 46.81736 18.41298 35952 ft 473 kts 318°
2026-05-05 12:24 46.86699 18.35097 35943 ft 472 kts 318°
2026-05-05 12:25 46.91715 18.28813 35935 ft 472 kts 317°
2026-05-05 12:25 46.96671 18.22588 35933 ft 472 kts 317°
2026-05-05 12:26 47.01668 18.16297 35925 ft 473 kts 317°
2026-05-05 12:26 47.06649 18.10008 35927 ft 473 kts 317°
2026-05-05 12:27 47.11620 18.03717 35932 ft 472 kts 317°
2026-05-05 12:27 47.16595 17.97404 35933 ft 472 kts 317°
2026-05-05 12:28 47.21553 17.91098 35932 ft 472 kts 317°
2026-05-05 12:28 47.26510 17.84775 35935 ft 473 kts 317°
2026-05-05 12:29 47.31478 17.78422 35925 ft 473 kts 317°
2026-05-05 12:29 47.36455 17.72042 35914 ft 473 kts 317°
2026-05-05 12:30 47.41437 17.65638 35912 ft 473 kts 317°
2026-05-05 12:30 47.46382 17.59265 35903 ft 474 kts 317°
2026-05-05 12:31 47.51385 17.52800 35900 ft 473 kts 317°
2026-05-05 12:31 47.56325 17.46401 35895 ft 474 kts 317°
2026-05-05 12:32 47.61265 17.39985 35888 ft 473 kts 317°
2026-05-05 12:32 47.66190 17.33571 35881 ft 473 kts 316°
2026-05-05 12:33 47.71123 17.27131 35873 ft 473 kts 316°
2026-05-05 12:33 47.76068 17.20657 35864 ft 474 kts 316°
2026-05-05 12:34 47.81015 17.14164 35860 ft 474 kts 316°
2026-05-05 12:34 47.86281 17.08314 35863 ft 476 kts 326°
2026-05-05 12:35 47.91886 17.03027 35853 ft 477 kts 326°
2026-05-05 12:35 47.97474 16.97732 35843 ft 476 kts 326°
2026-05-05 12:36 48.03050 16.92422 35843 ft 475 kts 326°
2026-05-05 12:36 48.08629 16.87086 35848 ft 475 kts 326°
2026-05-05 12:37 48.14180 16.81762 35837 ft 474 kts 326°
2026-05-05 12:37 48.19775 16.76378 35835 ft 475 kts 326°
2026-05-05 12:38 48.25347 16.71001 35817 ft 475 kts 325°
2026-05-05 12:38 48.30872 16.65656 35827 ft 475 kts 325°
2026-05-05 12:39 48.36462 16.60232 35825 ft 475 kts 325°
2026-05-05 12:39 48.42031 16.54816 35826 ft 475 kts 325°
2026-05-05 12:40 48.47562 16.49421 35823 ft 474 kts 325°
2026-05-05 12:40 48.53089 16.44016 35821 ft 474 kts 325°
2026-05-05 12:41 48.58644 16.38569 35820 ft 474 kts 325°
2026-05-05 12:41 48.64172 16.33135 35814 ft 473 kts 324°
2026-05-05 12:42 48.69696 16.27690 35801 ft 474 kts 324°
2026-05-05 12:42 48.75220 16.22231 35793 ft 475 kts 325°
2026-05-05 12:43 48.81219 16.17895 35810 ft 478 kts 336°
2026-05-05 12:43 48.87388 16.14211 35801 ft 477 kts 336°
2026-05-05 12:44 48.93572 16.10501 35803 ft 476 kts 336°
2026-05-05 12:44 48.99746 16.06780 35815 ft 476 kts 336°
2026-05-05 12:45 49.05975 16.03011 35827 ft 477 kts 336°
2026-05-05 12:45 49.12158 15.99257 35834 ft 477 kts 336°
2026-05-05 12:46 49.18338 15.95495 35834 ft 476 kts 336°
2026-05-05 12:46 49.24534 15.91712 35843 ft 476 kts 336°
2026-05-05 12:47 49.30702 15.87935 35838 ft 476 kts 335°
2026-05-05 12:47 49.36865 15.84152 35827 ft 475 kts 335°
2026-05-05 12:48 49.43025 15.80359 35824 ft 474 kts 335°
2026-05-05 12:48 49.48998 15.76005 35827 ft 473 kts 328°
2026-05-05 12:49 49.54723 15.70971 35824 ft 472 kts 328°
2026-05-05 12:49 49.60462 15.65901 35822 ft 473 kts 328°
2026-05-05 12:50 49.66157 15.60861 35819 ft 471 kts 327°
2026-05-05 12:50 49.71964 15.55707 35818 ft 472 kts 327°
2026-05-05 12:51 49.77716 15.50589 35802 ft 471 kts 327°
2026-05-05 12:51 49.83394 15.45523 35806 ft 471 kts 327°
2026-05-05 12:52 49.89082 15.40434 35809 ft 471 kts 327°
2026-05-05 12:52 49.94793 15.35311 35808 ft 471 kts 327°
2026-05-05 12:53 50.00467 15.30207 35802 ft 470 kts 327°
2026-05-05 12:53 50.06139 15.25090 35794 ft 471 kts 326°
2026-05-05 12:54 50.14697 15.17344 35795 ft 471 kts 326°
2026-05-05 12:55 50.20364 15.12196 35797 ft 471 kts 326°
2026-05-05 12:55 50.26029 15.07037 35795 ft 470 kts 326°
2026-05-05 12:56 50.31732 15.01828 35801 ft 470 kts 326°
2026-05-05 12:56 50.37374 14.96660 35799 ft 471 kts 326°
2026-05-05 12:57 50.43058 14.91439 35801 ft 472 kts 326°
2026-05-05 12:57 50.48864 14.86661 35800 ft 476 kts 336°
2026-05-05 12:58 50.55311 14.83956 35814 ft 481 kts 344°
2026-05-05 12:58 50.61956 14.81574 35819 ft 480 kts 343°
2026-05-05 12:59 50.68557 14.79183 35817 ft 480 kts 343°
2026-05-05 12:59 50.75057 14.76808 35809 ft 481 kts 343°
2026-05-05 13:00 50.81540 14.74428 35301 ft 475 kts 343°
2026-05-05 13:00 50.84802 14.73226 34415 ft 478 kts 343°
2026-05-05 13:01 50.94574 14.69611 31844 ft 479 kts 343°
2026-05-05 13:01 50.97798 14.68338 31023 ft 478 kts 342°
2026-05-05 13:01 51.01035 14.67033 30280 ft 475 kts 342°
2026-05-05 13:01 51.04210 14.65753 29854 ft 467 kts 342°
2026-05-05 13:02 51.07321 14.64498 29400 ft 459 kts 343°
2026-05-05 13:02 51.10469 14.63226 28884 ft 468 kts 342°
2026-05-05 13:02 51.13662 14.61932 28328 ft 473 kts 343°
2026-05-05 13:02 51.16811 14.60660 27793 ft 470 kts 343°
2026-05-05 13:03 51.19970 14.59383 27256 ft 465 kts 343°
2026-05-05 13:03 51.23081 14.58124 26728 ft 460 kts 342°
2026-05-05 13:03 51.26175 14.56867 26188 ft 458 kts 342°
2026-05-05 13:03 51.29263 14.55608 25642 ft 457 kts 343°
2026-05-05 13:04 51.32310 14.54365 25103 ft 454 kts 343°
2026-05-05 13:04 51.35348 14.53125 24559 ft 450 kts 343°
2026-05-05 13:04 51.38535 14.51999 23995 ft 448 kts 349°
2026-05-05 13:04 51.41856 14.51408 23320 ft 449 kts 352°
2026-05-05 13:05 51.44956 14.50934 22709 ft 445 kts 352°
2026-05-05 13:05 51.48077 14.50461 22143 ft 440 kts 352°
2026-05-05 13:05 51.51044 14.50009 21625 ft 435 kts 352°
2026-05-05 13:05 51.54229 14.49522 21063 ft 429 kts 352°
2026-05-05 13:06 51.57331 14.49046 20516 ft 424 kts 352°
2026-05-05 13:06 51.60286 14.48591 19971 ft 420 kts 352°
2026-05-05 13:06 51.63218 14.48139 19444 ft 415 kts 352°
2026-05-05 13:06 51.66056 14.47700 18922 ft 411 kts 352°
2026-05-05 13:07 51.68938 14.47254 18390 ft 407 kts 352°
2026-05-05 13:07 51.71810 14.46808 17842 ft 404 kts 352°
2026-05-05 13:07 51.74860 14.46335 17285 ft 399 kts 352°
2026-05-05 13:07 51.77753 14.45885 16744 ft 396 kts 352°
2026-05-05 13:08 51.80555 14.45448 16225 ft 393 kts 352°
2026-05-05 13:08 51.83271 14.45024 15699 ft 389 kts 352°
2026-05-05 13:08 51.86002 14.44597 15166 ft 386 kts 352°
2026-05-05 13:08 51.88730 14.43965 14635 ft 380 kts 343°
2026-05-05 13:09 51.91197 14.42510 14188 ft 370 kts 330°
2026-05-05 13:09 51.93350 14.40178 13772 ft 365 kts 316°
2026-05-05 13:09 51.95060 14.37087 13359 ft 369 kts 303°
2026-05-05 13:09 51.96368 14.33492 12984 ft 364 kts 295°
2026-05-05 13:10 51.97586 14.29749 12483 ft 365 kts 295°
2026-05-05 13:10 51.98772 14.26072 11829 ft 365 kts 295°
2026-05-05 13:10 51.99921 14.22483 11404 ft 358 kts 295°
2026-05-05 13:10 52.01088 14.18827 11156 ft 352 kts 295°
2026-05-05 13:11 52.02214 14.15281 11025 ft 353 kts 295°
2026-05-05 13:11 52.03372 14.11611 10874 ft 351 kts 295°
2026-05-05 13:11 52.04507 14.07993 10717 ft 336 kts 295°
2026-05-05 13:11 52.05586 14.04562 10578 ft 322 kts 295°
2026-05-05 13:12 52.06618 14.01266 10438 ft 310 kts 295°
2026-05-05 13:12 52.07594 13.98151 10315 ft 298 kts 295°
2026-05-05 13:12 52.08520 13.95207 10195 ft 287 kts 295°
2026-05-05 13:12 52.09415 13.92374 10056 ft 274 kts 295°
2026-05-05 13:13 52.10115 13.89517 9987 ft 270 kts 286°
2026-05-05 13:13 52.10691 13.86452 9856 ft 271 kts 285°
2026-05-05 13:13 52.11258 13.83358 9718 ft 268 kts 285°
2026-05-05 13:13 52.11808 13.80363 9592 ft 268 kts 285°
2026-05-05 13:14 52.12386 13.77222 9453 ft 268 kts 285°
2026-05-05 13:14 52.12951 13.74123 9320 ft 267 kts 285°
2026-05-05 13:14 52.13514 13.71029 9188 ft 266 kts 285°
2026-05-05 13:14 52.14060 13.68035 8877 ft 264 kts 285°
2026-05-05 13:15 52.14636 13.64854 8473 ft 265 kts 285°
2026-05-05 13:15 52.15200 13.61720 8136 ft 263 kts 285°
2026-05-05 13:15 52.15727 13.58774 7791 ft 262 kts 285°
2026-05-05 13:15 52.16257 13.55780 7456 ft 261 kts 285°
2026-05-05 13:16 52.16792 13.52734 7140 ft 259 kts 285°
2026-05-05 13:16 52.17315 13.49739 6810 ft 258 kts 285°
2026-05-05 13:16 52.17835 13.46752 6504 ft 256 kts 285°
2026-05-05 13:16 52.18346 13.43795 6180 ft 255 kts 285°
2026-05-05 13:17 52.18856 13.40809 5821 ft 255 kts 285°
2026-05-05 13:17 52.19344 13.37902 5483 ft 255 kts 285°
2026-05-05 13:17 52.19810 13.35078 5171 ft 254 kts 285°
2026-05-05 13:17 52.20278 13.32190 4858 ft 254 kts 285°
2026-05-05 13:18 52.20748 13.29260 4565 ft 252 kts 285°
2026-05-05 13:18 52.21209 13.26364 4257 ft 252 kts 285°
2026-05-05 13:18 52.21656 13.23547 3924 ft 252 kts 285°
2026-05-05 13:18 52.22136 13.20738 3732 ft 244 kts 294°
2026-05-05 13:19 52.23132 13.18609 3628 ft 232 kts 324°
2026-05-05 13:19 52.24643 13.17699 3440 ft 223 kts 359°
2026-05-05 13:19 52.26121 13.18324 3365 ft 211 kts 30°
2026-05-05 13:19 52.27391 13.19766 3298 ft 200 kts 37°
2026-05-05 13:20 52.28381 13.21519 3254 ft 187 kts 57°
2026-05-05 13:20 52.28972 13.23541 3106 ft 183 kts 66°
2026-05-05 13:20 52.29453 13.25577 2866 ft 180 kts 67°
2026-05-05 13:20 52.29926 13.27560 2621 ft 176 kts 67°
2026-05-05 13:21 52.30383 13.29462 2390 ft 173 kts 67°
2026-05-05 13:21 52.30835 13.31340 2159 ft 171 kts 67°
2026-05-05 13:21 52.31282 13.33215 1908 ft 162 kts 67°
2026-05-05 13:21 52.31722 13.35043 1680 ft 155 kts 67°
2026-05-05 13:22 52.32137 13.36778 1463 ft 153 kts 68°
2026-05-05 13:22 52.32529 13.38420 1258 ft 152 kts 68°
2026-05-05 13:22 52.32939 13.40134 1039 ft 151 kts 68°
2026-05-05 13:22 52.33338 13.41798 828 ft 148 kts 69°
2026-05-05 13:23 52.33734 13.43404 603 ft 147 kts 68°
2026-05-05 13:23 52.34121 13.45002 400 ft 147 kts 69°
2026-05-05 13:23 52.34496 13.46635 221 ft 150 kts 70°
2026-05-05 13:23 52.34873 13.48216 150 ft 128 kts 69°
2026-05-05 13:24 52.35148 13.49387 150 ft 90 kts 68°
2026-05-05 13:24 52.35318 13.50100 150 ft 42 kts 69°
2026-05-05 13:24 52.35406 13.50408 149 ft 24 kts 54°
2026-05-05 13:24 52.35539 13.50628 147 ft 19 kts 38°
2026-05-05 13:25 52.35595 13.50702 146 ft 7 kts 39°
2026-05-05 13:25 52.35640 13.50765 146 ft 8 kts 39°
2026-05-05 13:25 52.35692 13.50829 146 ft 8 kts 28°
2026-05-05 13:25 52.35768 13.50825 146 ft 12 kts 343°
2026-05-05 13:26 52.35854 13.50775 146 ft 12 kts 339°
2026-05-05 13:26 52.35940 13.50720 146 ft 13 kts 339°
2026-05-05 13:26 52.36041 13.50659 146 ft 14 kts 340°
2026-05-05 13:26 52.36138 13.50595 146 ft 14 kts 338°
2026-05-05 13:27 52.36234 13.50536 146 ft 14 kts 336°
2026-05-05 13:27 52.36330 13.50474 146 ft 14 kts 338°
2026-05-05 13:27 52.36383 13.50441 146 ft 3 kts 346°
2026-05-05 13:27 52.36402 13.50451 146 ft 1 kts 55°
2026-05-05 13:28 52.36412 13.50484 146 ft 3 kts 66°
2026-05-05 13:28 52.36420 13.50518 146 ft 0 kts 68°
2026-05-05 13:28 52.36423 13.50530 146 ft 1 kts 68°
2026-05-05 13:28 52.36426 13.50542 146 ft 0 kts 68°